Year,Month,Day,Hour,Minute,Value (Times are PST for windspeed in km/hr)
2018,12,31,00,00,4.40
2018,12,31,00,01,3.70
2018,12,31,00,02,4.60
2018,12,31,00,03,3.70
2018,12,31,00,04,3.90
2018,12,31,00,05,1.70
2018,12,31,00,06,4.40
2018,12,31,00,07,2.90
2018,12,31,00,08,3.70
2018,12,31,00,09,3.50
2018,12,31,00,10,3.90
2018,12,31,00,11,4.40
2018,12,31,00,12,3.60
2018,12,31,00,13,4.20
2018,12,31,00,14,4.80
2018,12,31,00,15,5.00
2018,12,31,00,16,3.50
2018,12,31,00,17,4.00
2018,12,31,00,18,3.60
2018,12,31,00,19,2.70
2018,12,31,00,20,3.50
2018,12,31,00,21,4.40
2018,12,31,00,22,3.30
2018,12,31,00,23,2.50
2018,12,31,00,24,3.60
2018,12,31,00,25,2.60
2018,12,31,00,26,5.80
2018,12,31,00,27,4.50
2018,12,31,00,28,1.90
2018,12,31,00,29,2.90
2018,12,31,00,30,2.60
2018,12,31,00,31,2.30
2018,12,31,00,32,3.90
2018,12,31,00,33,3.90
2018,12,31,00,34,2.80
2018,12,31,00,35,2.40
2018,12,31,00,36,3.50
2018,12,31,00,37,2.10
2018,12,31,00,38,3.70
2018,12,31,00,39,4.10
2018,12,31,00,40,4.30
2018,12,31,00,41,3.90
2018,12,31,00,42,2.80
2018,12,31,00,43,4.40
2018,12,31,00,44,4.70
2018,12,31,00,45,4.20
2018,12,31,00,46,3.10
2018,12,31,00,47,3.30
2018,12,31,00,48,2.40
2018,12,31,00,49,2.70
2018,12,31,00,50,2.90
2018,12,31,00,51,3.20
2018,12,31,00,52,2.30
2018,12,31,00,53,3.50
2018,12,31,00,54,2.90
2018,12,31,00,55,3.20
2018,12,31,00,56,2.50
2018,12,31,00,57,3.00
2018,12,31,00,58,3.50
2018,12,31,00,59,1.50
2018,12,31,01,00,1.60
2018,12,31,01,01,3.30
2018,12,31,01,02,2.50
2018,12,31,01,03,2.80
2018,12,31,01,04,3.30
2018,12,31,01,05,2.20
2018,12,31,01,06,3.20
2018,12,31,01,07,3.40
2018,12,31,01,08,3.90
2018,12,31,01,09,3.30
2018,12,31,01,10,2.80
2018,12,31,01,11,3.90
2018,12,31,01,12,3.10
2018,12,31,01,13,3.70
2018,12,31,01,14,2.20
2018,12,31,01,15,3.20
2018,12,31,01,16,2.60
2018,12,31,01,17,3.50
2018,12,31,01,18,2.80
2018,12,31,01,19,3.30
2018,12,31,01,20,3.60
2018,12,31,01,21,4.30
2018,12,31,01,22,3.40
2018,12,31,01,23,3.10
2018,12,31,01,24,4.70
2018,12,31,01,25,3.70
2018,12,31,01,26,2.90
2018,12,31,01,27,2.80
2018,12,31,01,28,3.30
2018,12,31,01,29,2.50
2018,12,31,01,30,4.20
2018,12,31,01,31,3.60
2018,12,31,01,32,4.40
2018,12,31,01,33,3.30
2018,12,31,01,34,2.90
2018,12,31,01,35,1.90
2018,12,31,01,36,3.30
2018,12,31,01,37,2.50
2018,12,31,01,38,2.50
2018,12,31,01,39,2.10
2018,12,31,01,40,2.70
2018,12,31,01,41,1.70
2018,12,31,01,42,2.90
2018,12,31,01,43,2.60
2018,12,31,01,44,2.80
2018,12,31,01,45,3.10
2018,12,31,01,46,2.90
2018,12,31,01,47,2.90
2018,12,31,01,48,3.90
2018,12,31,01,49,4.00
2018,12,31,01,50,4.20
2018,12,31,01,51,2.50
2018,12,31,01,52,2.60
2018,12,31,01,53,3.80
2018,12,31,01,54,3.20
2018,12,31,01,55,2.70
2018,12,31,01,56,3.50
2018,12,31,01,57,2.50
2018,12,31,01,58,2.90
2018,12,31,01,59,4.30
2018,12,31,02,00,3.30
2018,12,31,02,01,3.50
2018,12,31,02,02,3.50
2018,12,31,02,03,1.90
2018,12,31,02,04,2.60
2018,12,31,02,05,3.20
2018,12,31,02,06,3.00
2018,12,31,02,07,3.10
2018,12,31,02,08,2.00
2018,12,31,02,09,3.40
2018,12,31,02,10,2.90
2018,12,31,02,11,1.40
2018,12,31,02,12,1.50
2018,12,31,02,13,1.70
2018,12,31,02,14,3.00
2018,12,31,02,15,2.60
2018,12,31,02,16,2.70
2018,12,31,02,17,2.20
2018,12,31,02,18,2.40
2018,12,31,02,19,1.80
2018,12,31,02,20,2.50
2018,12,31,02,21,2.90
2018,12,31,02,22,3.20
2018,12,31,02,23,2.50
2018,12,31,02,24,2.10
2018,12,31,02,25,3.50
2018,12,31,02,26,3.80
2018,12,31,02,27,4.10
2018,12,31,02,28,3.00
2018,12,31,02,29,3.30
2018,12,31,02,30,3.50
2018,12,31,02,31,3.70
2018,12,31,02,32,2.40
2018,12,31,02,33,3.30
2018,12,31,02,34,3.00
2018,12,31,02,35,4.20
2018,12,31,02,36,2.70
2018,12,31,02,37,2.90
2018,12,31,02,38,3.10
2018,12,31,02,39,3.50
2018,12,31,02,40,2.50
2018,12,31,02,41,2.90
2018,12,31,02,42,2.80
2018,12,31,02,43,2.90
2018,12,31,02,44,3.90
2018,12,31,02,45,5.00
2018,12,31,02,46,3.40
2018,12,31,02,47,2.90
2018,12,31,02,48,3.10
2018,12,31,02,49,2.90
2018,12,31,02,50,1.70
2018,12,31,02,51,3.30
2018,12,31,02,52,2.40
2018,12,31,02,53,2.30
2018,12,31,02,54,3.30
2018,12,31,02,55,3.70
2018,12,31,02,56,3.10
2018,12,31,02,57,3.10
2018,12,31,02,58,3.30
2018,12,31,02,59,2.80
2018,12,31,03,00,3.50
2018,12,31,03,01,1.80
2018,12,31,03,02,2.40
2018,12,31,03,03,3.30
2018,12,31,03,04,3.30
2018,12,31,03,05,3.00
2018,12,31,03,06,4.10
2018,12,31,03,07,3.50
2018,12,31,03,08,2.90
2018,12,31,03,09,2.70
2018,12,31,03,10,2.90
2018,12,31,03,11,4.10
2018,12,31,03,12,2.80
2018,12,31,03,13,2.80
2018,12,31,03,14,2.90
2018,12,31,03,15,3.10
2018,12,31,03,16,3.40
2018,12,31,03,17,3.50
2018,12,31,03,18,2.90
2018,12,31,03,19,2.50
2018,12,31,03,20,3.30
2018,12,31,03,21,3.00
2018,12,31,03,22,3.30
2018,12,31,03,23,3.20
2018,12,31,03,24,3.50
2018,12,31,03,25,2.70
2018,12,31,03,26,3.30
2018,12,31,03,27,2.30
2018,12,31,03,28,3.20
2018,12,31,03,29,2.60
2018,12,31,03,30,2.50
2018,12,31,03,31,2.30
2018,12,31,03,32,2.70
2018,12,31,03,33,2.10
2018,12,31,03,34,3.40
2018,12,31,03,35,2.90
2018,12,31,03,36,2.40
2018,12,31,03,37,3.10
2018,12,31,03,38,2.50
2018,12,31,03,39,2.90
2018,12,31,03,40,2.10
2018,12,31,03,41,2.50
2018,12,31,03,42,2.90
2018,12,31,03,43,3.30
2018,12,31,03,44,2.50
2018,12,31,03,45,3.00
2018,12,31,03,46,2.10
2018,12,31,03,47,3.10
2018,12,31,03,48,2.50
2018,12,31,03,49,2.40
2018,12,31,03,50,2.70
2018,12,31,03,51,2.20
2018,12,31,03,52,2.40
2018,12,31,03,53,1.80
2018,12,31,03,54,2.10
2018,12,31,03,55,1.40
2018,12,31,03,56,2.30
2018,12,31,03,57,3.10
2018,12,31,03,58,3.30
2018,12,31,03,59,3.20
2018,12,31,04,00,3.60
2018,12,31,04,01,3.60
2018,12,31,04,02,4.60
2018,12,31,04,03,3.60
2018,12,31,04,04,3.40
2018,12,31,04,05,3.30
2018,12,31,04,06,3.60
2018,12,31,04,07,4.20
2018,12,31,04,08,4.00
2018,12,31,04,09,3.70
2018,12,31,04,10,3.70
2018,12,31,04,11,3.10
2018,12,31,04,12,3.70
2018,12,31,04,13,4.40
2018,12,31,04,14,3.50
2018,12,31,04,15,3.80
2018,12,31,04,16,3.60
2018,12,31,04,17,4.50
2018,12,31,04,18,3.30
2018,12,31,04,19,3.10
2018,12,31,04,20,4.10
2018,12,31,04,21,3.50
2018,12,31,04,22,2.50
2018,12,31,04,23,3.80
2018,12,31,04,24,4.80
2018,12,31,04,25,3.90
2018,12,31,04,26,3.20
2018,12,31,04,27,4.80
2018,12,31,04,28,2.40
2018,12,31,04,29,4.30
2018,12,31,04,30,3.30
2018,12,31,04,31,3.30
2018,12,31,04,32,2.50
2018,12,31,04,33,3.50
2018,12,31,04,34,3.10
2018,12,31,04,35,3.20
2018,12,31,04,36,3.50
2018,12,31,04,37,3.40
2018,12,31,04,38,2.90
2018,12,31,04,39,3.10
2018,12,31,04,40,3.70
2018,12,31,04,41,3.30
2018,12,31,04,42,2.90
2018,12,31,04,43,3.60
2018,12,31,04,44,2.60
2018,12,31,04,45,3.50
2018,12,31,04,46,3.30
2018,12,31,04,47,4.60
2018,12,31,04,48,3.20
2018,12,31,04,49,3.70
2018,12,31,04,50,3.20
2018,12,31,04,51,3.70
2018,12,31,04,52,3.00
2018,12,31,04,53,3.10
2018,12,31,04,54,4.10
2018,12,31,04,55,3.90
2018,12,31,04,56,3.60
2018,12,31,04,57,2.40
2018,12,31,04,58,3.10
2018,12,31,04,59,3.40
2018,12,31,05,00,3.00
2018,12,31,05,01,3.00
2018,12,31,05,02,3.20
2018,12,31,05,03,3.20
2018,12,31,05,04,3.50
2018,12,31,05,05,3.70
2018,12,31,05,06,3.10
2018,12,31,05,07,2.80
2018,12,31,05,08,3.30
2018,12,31,05,09,3.80
2018,12,31,05,10,3.00
2018,12,31,05,11,3.60
2018,12,31,05,12,3.30
2018,12,31,05,13,2.50
2018,12,31,05,14,3.10
2018,12,31,05,15,4.10
2018,12,31,05,16,3.90
2018,12,31,05,17,3.40
2018,12,31,05,18,3.50
2018,12,31,05,19,4.00
2018,12,31,05,20,4.40
2018,12,31,05,21,3.50
2018,12,31,05,22,3.30
2018,12,31,05,23,3.20
2018,12,31,05,24,3.90
2018,12,31,05,25,4.50
2018,12,31,05,26,4.40
2018,12,31,05,27,4.40
2018,12,31,05,28,4.40
2018,12,31,05,29,3.90
2018,12,31,05,30,4.40
2018,12,31,05,31,3.50
2018,12,31,05,32,3.60
2018,12,31,05,33,3.10
2018,12,31,05,34,2.10
2018,12,31,05,35,3.00
2018,12,31,05,36,1.80
2018,12,31,05,37,2.90
2018,12,31,05,38,2.70
2018,12,31,05,39,3.70
2018,12,31,05,40,3.30
2018,12,31,05,41,3.70
2018,12,31,05,42,3.90
2018,12,31,05,43,3.80
2018,12,31,05,44,4.10
2018,12,31,05,45,3.60
2018,12,31,05,46,3.50
2018,12,31,05,47,3.90
2018,12,31,05,48,3.70
2018,12,31,05,49,3.70
2018,12,31,05,50,4.00
2018,12,31,05,51,4.10
2018,12,31,05,52,4.60
2018,12,31,05,53,4.60
2018,12,31,05,54,4.40
2018,12,31,05,55,4.50
2018,12,31,05,56,4.00
2018,12,31,05,57,3.80
2018,12,31,05,58,3.10
2018,12,31,05,59,4.00
2018,12,31,06,00,3.90
2018,12,31,06,01,2.90
2018,12,31,06,02,3.60
2018,12,31,06,03,3.80
2018,12,31,06,04,3.50
2018,12,31,06,05,3.60
2018,12,31,06,06,3.00
2018,12,31,06,07,3.40
2018,12,31,06,08,4.40
2018,12,31,06,09,4.50
2018,12,31,06,10,3.90
2018,12,31,06,11,3.90
2018,12,31,06,12,4.30
2018,12,31,06,13,3.90
2018,12,31,06,14,3.60
2018,12,31,06,15,4.10
2018,12,31,06,16,4.20
2018,12,31,06,17,3.70
2018,12,31,06,18,4.30
2018,12,31,06,19,4.40
2018,12,31,06,20,3.90
2018,12,31,06,21,4.00
2018,12,31,06,22,3.90
2018,12,31,06,23,4.60
2018,12,31,06,24,4.40
2018,12,31,06,25,4.60
2018,12,31,06,26,4.30
2018,12,31,06,27,3.50
2018,12,31,06,28,3.80
2018,12,31,06,29,4.60
2018,12,31,06,30,4.40
2018,12,31,06,31,4.80
2018,12,31,06,32,4.70
2018,12,31,06,33,4.70
2018,12,31,06,34,4.10
2018,12,31,06,35,4.20
2018,12,31,06,36,4.60
2018,12,31,06,37,4.60
2018,12,31,06,38,4.80
2018,12,31,06,39,4.90
2018,12,31,06,40,4.80
2018,12,31,06,41,4.60
2018,12,31,06,42,4.10
2018,12,31,06,43,3.70
2018,12,31,06,44,3.70
2018,12,31,06,45,3.70
2018,12,31,06,46,3.70
2018,12,31,06,47,3.90
2018,12,31,06,48,4.70
2018,12,31,06,49,4.90
2018,12,31,06,50,4.80
2018,12,31,06,51,5.00
2018,12,31,06,52,5.10
2018,12,31,06,53,4.60
2018,12,31,06,54,5.20
2018,12,31,06,55,5.50
2018,12,31,06,56,5.40
2018,12,31,06,57,4.80
2018,12,31,06,58,5.20
2018,12,31,06,59,3.90
2018,12,31,07,00,4.10
2018,12,31,07,01,4.10
2018,12,31,07,02,4.20
2018,12,31,07,03,4.60
2018,12,31,07,04,4.80
2018,12,31,07,05,4.90
2018,12,31,07,06,4.80
2018,12,31,07,07,4.60
2018,12,31,07,08,3.90
2018,12,31,07,09,4.40
2018,12,31,07,10,4.30
2018,12,31,07,11,4.20
2018,12,31,07,12,4.80
2018,12,31,07,13,3.90
2018,12,31,07,14,3.50
2018,12,31,07,15,4.60
2018,12,31,07,16,4.70
2018,12,31,07,17,4.70
2018,12,31,07,18,4.60
2018,12,31,07,19,4.40
2018,12,31,07,20,4.10
2018,12,31,07,21,4.60
2018,12,31,07,22,4.70
2018,12,31,07,23,4.60
2018,12,31,07,24,4.40
2018,12,31,07,25,4.50
2018,12,31,07,26,4.00
2018,12,31,07,27,3.70
2018,12,31,07,28,3.70
2018,12,31,07,29,3.80
2018,12,31,07,30,4.20
2018,12,31,07,31,4.30
2018,12,31,07,32,3.20
2018,12,31,07,33,3.80
2018,12,31,07,34,4.60
2018,12,31,07,35,4.60
2018,12,31,07,36,4.70
2018,12,31,07,37,4.40
2018,12,31,07,38,4.10
2018,12,31,07,39,4.60
2018,12,31,07,40,4.30
2018,12,31,07,41,4.90
2018,12,31,07,42,4.80
2018,12,31,07,43,4.70
2018,12,31,07,44,4.80
2018,12,31,07,45,4.80
2018,12,31,07,46,4.80
2018,12,31,07,47,4.10
2018,12,31,07,48,4.40
2018,12,31,07,49,3.90
2018,12,31,07,50,4.30
2018,12,31,07,51,3.90
2018,12,31,07,52,5.00
2018,12,31,07,53,4.10
2018,12,31,07,54,3.30
2018,12,31,07,55,3.80
2018,12,31,07,56,4.10
2018,12,31,07,57,4.10
2018,12,31,07,58,4.20
2018,12,31,07,59,4.30
2018,12,31,08,00,3.50
2018,12,31,08,01,4.30
2018,12,31,08,02,4.40
2018,12,31,08,03,3.90
2018,12,31,08,04,3.70
2018,12,31,08,05,3.90
2018,12,31,08,06,4.60
2018,12,31,08,07,3.30
2018,12,31,08,08,3.00
2018,12,31,08,09,3.50
2018,12,31,08,10,3.90
2018,12,31,08,11,3.40
2018,12,31,08,12,3.60
2018,12,31,08,13,3.60
2018,12,31,08,14,4.00
2018,12,31,08,15,4.60
2018,12,31,08,16,3.30
2018,12,31,08,17,3.90
2018,12,31,08,18,3.90
2018,12,31,08,19,3.90
2018,12,31,08,20,4.40
2018,12,31,08,21,3.80
2018,12,31,08,22,3.80
2018,12,31,08,23,4.10
2018,12,31,08,24,3.90
2018,12,31,08,25,3.50
2018,12,31,08,26,3.10
2018,12,31,08,27,3.10
2018,12,31,08,28,3.20
2018,12,31,08,29,2.30
2018,12,31,08,30,2.60
2018,12,31,08,31,3.30
2018,12,31,08,32,2.90
2018,12,31,08,33,2.80
2018,12,31,08,34,3.20
2018,12,31,08,35,3.40
2018,12,31,08,36,3.60
2018,12,31,08,37,4.20
2018,12,31,08,38,4.60
2018,12,31,08,39,4.30
2018,12,31,08,40,4.60
2018,12,31,08,41,4.10
2018,12,31,08,42,3.60
2018,12,31,08,43,3.30
2018,12,31,08,44,3.50
2018,12,31,08,45,3.80
2018,12,31,08,46,3.70
2018,12,31,08,47,3.50
2018,12,31,08,48,3.70
2018,12,31,08,49,3.70
2018,12,31,08,50,4.00
2018,12,31,08,51,3.80
2018,12,31,08,52,3.30
2018,12,31,08,53,3.70
2018,12,31,08,54,3.60
2018,12,31,08,55,3.30
2018,12,31,08,56,3.20
2018,12,31,08,57,3.20
2018,12,31,08,58,2.20
2018,12,31,08,59,3.20
2018,12,31,09,00,2.10
2018,12,31,09,01,2.70
2018,12,31,09,02,2.70
2018,12,31,09,03,2.90
2018,12,31,09,04,2.50
2018,12,31,09,05,3.20
2018,12,31,09,06,2.50
2018,12,31,09,07,3.30
2018,12,31,09,08,3.30
2018,12,31,09,09,3.40
2018,12,31,09,10,3.80
2018,12,31,09,11,3.40
2018,12,31,09,12,2.90
2018,12,31,09,13,3.10
2018,12,31,09,14,1.80
2018,12,31,09,15,3.10
2018,12,31,09,16,2.70
2018,12,31,09,17,1.60
2018,12,31,09,18,3.00
2018,12,31,09,19,3.10
2018,12,31,09,20,3.60
2018,12,31,09,21,3.40
2018,12,31,09,22,3.70
2018,12,31,09,23,3.60
2018,12,31,09,24,3.90
2018,12,31,09,25,3.60
2018,12,31,09,26,3.50
2018,12,31,09,27,3.30
2018,12,31,09,28,3.30
2018,12,31,09,29,3.20
2018,12,31,09,30,3.50
2018,12,31,09,31,2.70
2018,12,31,09,32,2.70
2018,12,31,09,33,3.00
2018,12,31,09,34,3.10
2018,12,31,09,35,2.50
2018,12,31,09,36,2.70
2018,12,31,09,37,3.20
2018,12,31,09,38,2.30
2018,12,31,09,39,2.90
2018,12,31,09,40,2.60
2018,12,31,09,41,3.00
2018,12,31,09,42,2.50
2018,12,31,09,43,2.70
2018,12,31,09,44,3.10
2018,12,31,09,45,2.30
2018,12,31,09,46,3.10
2018,12,31,09,47,2.80
2018,12,31,09,48,2.60
2018,12,31,09,49,2.70
2018,12,31,09,50,1.30
2018,12,31,09,51,1.80
2018,12,31,09,52,1.30
2018,12,31,09,53,0.20
2018,12,31,09,54,0.00
2018,12,31,09,55,0.60
2018,12,31,09,56,0.10
2018,12,31,09,57,1.10
2018,12,31,09,58,0.50
2018,12,31,09,59,0.50
2018,12,31,10,00,2.10
2018,12,31,10,01,0.70
2018,12,31,10,02,1.60
2018,12,31,10,03,1.80
2018,12,31,10,04,0.50
2018,12,31,10,05,0.20
2018,12,31,10,06,0.50
2018,12,31,10,07,0.80
2018,12,31,10,08,1.90
2018,12,31,10,09,0.50
2018,12,31,10,10,0.60
2018,12,31,10,11,0.30
2018,12,31,10,12,1.50
2018,12,31,10,13,2.30
2018,12,31,10,14,1.90
2018,12,31,10,15,1.20
2018,12,31,10,16,2.50
2018,12,31,10,17,0.90
2018,12,31,10,18,1.80
2018,12,31,10,19,2.30
2018,12,31,10,20,1.00
2018,12,31,10,21,1.30
2018,12,31,10,22,1.80
2018,12,31,10,23,1.40
2018,12,31,10,24,0.50
2018,12,31,10,25,0.00
2018,12,31,10,26,0.00
2018,12,31,10,27,0.00
2018,12,31,10,28,0.00
2018,12,31,10,29,0.00
2018,12,31,10,30,0.00
2018,12,31,10,31,0.00
2018,12,31,10,32,0.00
2018,12,31,10,33,0.00
2018,12,31,10,34,0.00
2018,12,31,10,35,0.00
2018,12,31,10,36,0.00
2018,12,31,10,37,0.00
2018,12,31,10,38,0.00
2018,12,31,10,39,0.00
2018,12,31,10,40,0.00
2018,12,31,10,41,0.00
2018,12,31,10,42,0.00
2018,12,31,10,43,0.00
2018,12,31,10,44,0.00
2018,12,31,10,45,0.00
2018,12,31,10,46,0.00
2018,12,31,10,47,0.00
2018,12,31,10,48,0.00
2018,12,31,10,49,0.00
2018,12,31,10,50,0.00
2018,12,31,10,51,0.00
2018,12,31,10,52,0.00
2018,12,31,10,53,0.00
2018,12,31,10,54,0.40
2018,12,31,10,55,3.50
2018,12,31,10,56,3.30
2018,12,31,10,57,2.70
2018,12,31,10,58,4.10
2018,12,31,10,59,3.90
2018,12,31,11,00,4.10
2018,12,31,11,01,3.50
2018,12,31,11,02,3.60
2018,12,31,11,03,2.70
2018,12,31,11,04,3.30
2018,12,31,11,05,3.60
2018,12,31,11,06,4.60
2018,12,31,11,07,4.60
2018,12,31,11,08,4.50
2018,12,31,11,09,3.10
2018,12,31,11,10,2.80
2018,12,31,11,11,2.30
2018,12,31,11,12,2.90
2018,12,31,11,13,2.70
2018,12,31,11,14,3.00
2018,12,31,11,15,2.60
2018,12,31,11,16,2.40
2018,12,31,11,17,2.50
2018,12,31,11,18,1.80
2018,12,31,11,19,3.00
2018,12,31,11,20,3.50
2018,12,31,11,21,2.70
2018,12,31,11,22,2.50
2018,12,31,11,23,2.40
2018,12,31,11,24,2.70
2018,12,31,11,25,2.10
2018,12,31,11,26,2.20
2018,12,31,11,27,2.10
2018,12,31,11,28,1.80
2018,12,31,11,29,2.30
2018,12,31,11,30,2.30
2018,12,31,11,31,2.70
2018,12,31,11,32,1.70
2018,12,31,11,33,2.80
2018,12,31,11,34,2.30
2018,12,31,11,35,1.80
2018,12,31,11,36,2.50
2018,12,31,11,37,1.90
2018,12,31,11,38,2.70
2018,12,31,11,39,3.10
2018,12,31,11,40,2.50
2018,12,31,11,41,3.80
2018,12,31,11,42,3.10
2018,12,31,11,43,2.90
2018,12,31,11,44,3.90
2018,12,31,11,45,3.50
2018,12,31,11,46,3.20
2018,12,31,11,47,2.80
2018,12,31,11,48,3.40
2018,12,31,11,49,2.40
2018,12,31,11,50,2.60
2018,12,31,11,51,3.10
2018,12,31,11,52,2.30
2018,12,31,11,53,3.50
2018,12,31,11,54,3.40
2018,12,31,11,55,3.20
2018,12,31,11,56,2.90
2018,12,31,11,57,3.60
2018,12,31,11,58,2.70
2018,12,31,11,59,3.50
2018,12,31,12,00,4.00
2018,12,31,12,01,3.70
2018,12,31,12,02,2.90
2018,12,31,12,03,2.80
2018,12,31,12,04,3.10
2018,12,31,12,05,2.70
2018,12,31,12,06,2.30
2018,12,31,12,07,2.30
2018,12,31,12,08,2.10
2018,12,31,12,09,2.90
2018,12,31,12,10,2.90
2018,12,31,12,11,3.10
2018,12,31,12,12,2.90
2018,12,31,12,13,3.10
2018,12,31,12,14,2.90
2018,12,31,12,15,3.50
2018,12,31,12,16,3.20
2018,12,31,12,17,3.00
2018,12,31,12,18,3.10
2018,12,31,12,19,2.80
2018,12,31,12,20,1.60
2018,12,31,12,21,2.10
2018,12,31,12,22,3.20
2018,12,31,12,23,4.10
2018,12,31,12,24,2.80
2018,12,31,12,25,3.10
2018,12,31,12,26,3.30
2018,12,31,12,27,2.20
2018,12,31,12,28,1.80
2018,12,31,12,29,1.60
2018,12,31,12,30,0.90
2018,12,31,12,31,1.20
2018,12,31,12,32,2.10
2018,12,31,12,33,2.70
2018,12,31,12,34,3.90
2018,12,31,12,35,2.30
2018,12,31,12,36,2.00
2018,12,31,12,37,1.90
2018,12,31,12,38,1.90
2018,12,31,12,39,1.50
2018,12,31,12,40,1.80
2018,12,31,12,41,2.50
2018,12,31,12,42,2.10
2018,12,31,12,43,1.70
2018,12,31,12,44,0.40
2018,12,31,12,45,1.50
2018,12,31,12,46,2.80
2018,12,31,12,47,3.50
2018,12,31,12,48,3.40
2018,12,31,12,49,3.30
2018,12,31,12,50,2.90
2018,12,31,12,51,1.80
2018,12,31,12,52,1.90
2018,12,31,12,53,2.10
2018,12,31,12,54,2.00
2018,12,31,12,55,2.10
2018,12,31,12,56,1.80
2018,12,31,12,57,3.00
2018,12,31,12,58,3.10
2018,12,31,12,59,2.50
2018,12,31,13,00,2.50
2018,12,31,13,01,1.90
2018,12,31,13,02,2.10
2018,12,31,13,03,1.90
2018,12,31,13,04,2.00
2018,12,31,13,05,1.90
2018,12,31,13,06,2.10
2018,12,31,13,07,1.30
2018,12,31,13,08,1.80
2018,12,31,13,09,1.90
2018,12,31,13,10,1.60
2018,12,31,13,11,1.80
2018,12,31,13,12,2.10
2018,12,31,13,13,1.50
2018,12,31,13,14,0.70
2018,12,31,13,15,0.60
2018,12,31,13,16,1.20
2018,12,31,13,17,1.60
2018,12,31,13,18,2.10
2018,12,31,13,19,1.60
2018,12,31,13,20,1.60
2018,12,31,13,21,1.60
2018,12,31,13,22,1.60
2018,12,31,13,23,0.80
2018,12,31,13,24,0.00
2018,12,31,13,25,0.00
2018,12,31,13,26,0.00
2018,12,31,13,27,0.00
2018,12,31,13,28,1.50
2018,12,31,13,29,0.90
2018,12,31,13,30,1.40
2018,12,31,13,31,1.20
2018,12,31,13,32,0.00
2018,12,31,13,33,0.00
2018,12,31,13,34,0.60
2018,12,31,13,35,2.50
2018,12,31,13,36,1.10
2018,12,31,13,37,0.00
2018,12,31,13,38,0.00
2018,12,31,13,39,0.00
2018,12,31,13,40,0.00
2018,12,31,13,41,0.00
2018,12,31,13,42,0.00
2018,12,31,13,43,0.00
2018,12,31,13,44,0.00
2018,12,31,13,45,0.00
2018,12,31,13,46,0.00
2018,12,31,13,47,0.00
2018,12,31,13,48,0.00
2018,12,31,13,49,0.00
2018,12,31,13,50,0.00
2018,12,31,13,51,0.00
2018,12,31,13,52,0.00
2018,12,31,13,53,0.00
2018,12,31,13,54,0.00
2018,12,31,13,55,0.00
2018,12,31,13,56,0.00
2018,12,31,13,57,0.00
2018,12,31,13,58,0.00
2018,12,31,13,59,0.00
2018,12,31,14,00,0.00
2018,12,31,14,01,0.00
2018,12,31,14,02,0.00
2018,12,31,14,03,0.00
2018,12,31,14,04,0.00
2018,12,31,14,05,0.00
2018,12,31,14,06,0.00
2018,12,31,14,07,0.00
2018,12,31,14,08,0.00
2018,12,31,14,09,0.00
2018,12,31,14,10,0.00
2018,12,31,14,11,0.00
2018,12,31,14,12,0.00
2018,12,31,14,13,0.00
2018,12,31,14,14,0.00
2018,12,31,14,15,0.00
2018,12,31,14,16,0.00
2018,12,31,14,17,0.00
2018,12,31,14,18,0.00
2018,12,31,14,19,0.00
2018,12,31,14,20,0.00
2018,12,31,14,21,0.00
2018,12,31,14,22,0.00
2018,12,31,14,23,0.00
2018,12,31,14,24,0.00
2018,12,31,14,25,0.00
2018,12,31,14,26,0.00
2018,12,31,14,27,0.00
2018,12,31,14,28,0.00
2018,12,31,14,29,0.00
2018,12,31,14,30,0.00
2018,12,31,14,31,0.00
2018,12,31,14,32,0.00
2018,12,31,14,33,0.00
2018,12,31,14,34,0.00
2018,12,31,14,35,0.00
2018,12,31,14,36,0.00
2018,12,31,14,37,0.00
2018,12,31,14,38,0.00
2018,12,31,14,39,0.00
2018,12,31,14,40,0.00
2018,12,31,14,41,0.00
2018,12,31,14,42,0.00
2018,12,31,14,43,0.00
2018,12,31,14,44,0.00
2018,12,31,14,45,0.00
2018,12,31,14,46,0.00
2018,12,31,14,47,0.00
2018,12,31,14,48,0.00
2018,12,31,14,49,0.00
2018,12,31,14,50,0.00
2018,12,31,14,51,0.00
2018,12,31,14,52,0.00
2018,12,31,14,53,0.00
2018,12,31,14,54,0.00
2018,12,31,14,55,0.00
2018,12,31,14,56,0.00
2018,12,31,14,57,0.00
2018,12,31,14,58,0.00
2018,12,31,14,59,0.00
2018,12,31,15,00,0.00
2018,12,31,15,01,0.00
2018,12,31,15,02,0.00
2018,12,31,15,03,0.00
2018,12,31,15,04,0.00
2018,12,31,15,05,0.00
2018,12,31,15,06,0.00
2018,12,31,15,07,0.00
2018,12,31,15,08,0.00
2018,12,31,15,09,0.00
2018,12,31,15,10,0.00
2018,12,31,15,11,0.00
2018,12,31,15,12,0.00
2018,12,31,15,13,0.00
2018,12,31,15,14,0.00
2018,12,31,15,15,0.00
2018,12,31,15,16,0.00
2018,12,31,15,17,0.00
2018,12,31,15,18,0.00
2018,12,31,15,19,0.00
2018,12,31,15,20,0.00
2018,12,31,15,21,0.00
2018,12,31,15,22,0.00
2018,12,31,15,23,0.00
2018,12,31,15,24,0.00
2018,12,31,15,25,0.00
2018,12,31,15,26,0.00
2018,12,31,15,27,0.00
2018,12,31,15,28,0.00
2018,12,31,15,29,0.00
2018,12,31,15,30,0.00
2018,12,31,15,31,0.00
2018,12,31,15,32,0.00
2018,12,31,15,33,0.00
2018,12,31,15,34,0.00
2018,12,31,15,35,0.00
2018,12,31,15,36,0.00
2018,12,31,15,37,0.00
2018,12,31,15,38,0.00
2018,12,31,15,39,0.00
2018,12,31,15,40,0.00
2018,12,31,15,41,0.00
2018,12,31,15,42,0.00
2018,12,31,15,43,0.00
2018,12,31,15,44,0.00
2018,12,31,15,45,0.00
2018,12,31,15,46,0.00
2018,12,31,15,47,0.00
2018,12,31,15,48,0.00
2018,12,31,15,49,0.00
2018,12,31,15,50,0.00
2018,12,31,15,51,0.00
2018,12,31,15,52,0.00
2018,12,31,15,53,0.00
2018,12,31,16,08,0.00
2018,12,31,16,09,0.00
2018,12,31,16,10,0.00
2018,12,31,16,11,0.00
2018,12,31,16,12,0.00
2018,12,31,16,13,0.00
2018,12,31,16,14,0.00
2018,12,31,16,15,0.00
2018,12,31,16,16,0.00
2018,12,31,16,17,0.00
2018,12,31,16,18,0.00
2018,12,31,16,19,0.00
2018,12,31,16,20,0.00
2018,12,31,16,21,0.00
2018,12,31,16,22,0.00
2018,12,31,16,23,0.00
2018,12,31,16,24,0.00
2018,12,31,16,25,0.00
2018,12,31,16,26,0.00
2018,12,31,16,27,0.00
2018,12,31,16,28,3.10
2018,12,31,16,29,3.00
2018,12,31,16,30,3.50
2018,12,31,16,31,3.50
2018,12,31,16,32,4.40
2018,12,31,16,33,4.10
2018,12,31,16,34,3.30
2018,12,31,16,35,3.40
2018,12,31,16,36,3.80
2018,12,31,16,37,3.20
2018,12,31,16,38,3.40
2018,12,31,16,39,4.00
2018,12,31,16,40,3.80
2018,12,31,16,41,3.70
2018,12,31,16,42,3.90
2018,12,31,16,43,3.90
2018,12,31,16,44,4.00
2018,12,31,16,45,3.50
2018,12,31,16,46,3.30
2018,12,31,16,47,3.00
2018,12,31,16,48,4.20
2018,12,31,16,49,4.10
2018,12,31,16,50,3.90
2018,12,31,16,51,3.40
2018,12,31,16,52,3.10
2018,12,31,16,53,4.60
2018,12,31,16,54,3.90
2018,12,31,16,55,3.50
2018,12,31,16,56,2.90
2018,12,31,16,57,3.70
2018,12,31,16,58,3.40
2018,12,31,16,59,4.00
2018,12,31,17,00,4.30
2018,12,31,17,01,4.00
2018,12,31,17,02,3.20
2018,12,31,17,03,3.60
2018,12,31,17,04,3.50
2018,12,31,17,05,3.90
2018,12,31,17,06,4.00
2018,12,31,17,07,4.00
2018,12,31,17,08,3.60
2018,12,31,17,09,3.90
2018,12,31,17,10,3.50
2018,12,31,17,11,2.60
2018,12,31,17,12,4.30
2018,12,31,17,13,4.00
2018,12,31,17,14,3.90
2018,12,31,17,15,3.70
2018,12,31,17,16,4.30
2018,12,31,17,17,3.80
2018,12,31,17,18,3.20
2018,12,31,17,19,4.40
2018,12,31,17,20,4.30
2018,12,31,17,21,3.30
2018,12,31,17,22,3.90
2018,12,31,17,23,3.00
2018,12,31,17,24,3.60
2018,12,31,17,25,3.30
2018,12,31,17,26,3.80
2018,12,31,17,27,3.80
2018,12,31,17,28,3.80
2018,12,31,17,29,4.00
2018,12,31,17,30,3.90
2018,12,31,17,31,3.50
2018,12,31,17,32,3.10
2018,12,31,17,33,3.30
2018,12,31,17,34,3.30
2018,12,31,17,35,3.20
2018,12,31,17,36,3.50
2018,12,31,17,37,3.90
2018,12,31,17,38,2.60
2018,12,31,17,39,3.10
2018,12,31,17,40,2.90
2018,12,31,17,41,3.50
2018,12,31,17,42,2.70
2018,12,31,17,43,1.90
2018,12,31,17,44,3.30
2018,12,31,17,45,3.00
2018,12,31,17,46,3.00
2018,12,31,17,47,3.30
2018,12,31,17,48,3.50
2018,12,31,17,49,3.50
2018,12,31,17,50,3.00
2018,12,31,17,51,2.80
2018,12,31,17,52,2.00
2018,12,31,17,53,2.90
2018,12,31,17,54,2.10
2018,12,31,17,55,3.30
2018,12,31,17,56,3.50
2018,12,31,17,57,3.00
2018,12,31,17,58,2.60
2018,12,31,17,59,2.40
2018,12,31,18,00,3.30
2018,12,31,18,01,3.00
2018,12,31,18,02,2.80
2018,12,31,18,03,3.10
2018,12,31,18,04,2.50
2018,12,31,18,05,2.50
2018,12,31,18,06,2.70
2018,12,31,18,07,2.70
2018,12,31,18,08,3.30
2018,12,31,18,09,2.60
2018,12,31,18,10,2.90
2018,12,31,18,11,2.40
2018,12,31,18,12,3.00
2018,12,31,18,13,2.90
2018,12,31,18,14,2.80
2018,12,31,18,15,3.10
2018,12,31,18,16,2.40
2018,12,31,18,17,2.40
2018,12,31,18,18,2.80
2018,12,31,18,19,2.90
2018,12,31,18,20,3.00